Time,TemperatureF,DewpointF,PressureIn,WindDirection,WindDirectionDegrees,WindSpeedMPH,WindSpeedGustMPH,Humidity,HourlyPrecipIn,Conditions,Clouds,dailyrainin,SoftwareType,DateUTC
2013-01-18 00:02:00,26.0,21.0,30.41,WSW,253,2.0,-999.0,81,-99.99,,,-99.99,,2013-01-18 06:02:00,
2013-01-18 00:12:00,26.0,21.0,30.41,WSW,253,2.0,-999.0,81,-99.99,,,-99.99,,2013-01-18 06:12:00,
2013-01-18 00:22:00,26.0,21.0,30.42,WSW,252,1.0,-999.0,82,-99.99,,,-99.99,,2013-01-18 06:22:00,
2013-01-18 00:32:00,26.0,21.0,30.42,WSW,253,2.0,-999.0,81,-99.99,,,-99.99,,2013-01-18 06:32:00,
2013-01-18 00:43:00,26.0,21.0,30.42,WSW,253,2.0,-999.0,81,-99.99,,,-99.99,,2013-01-18 06:43:00,
2013-01-18 00:52:00,26.0,21.0,30.42,WSW,253,2.0,-999.0,81,-99.99,,,-99.99,,2013-01-18 06:52:00,
2013-01-18 01:02:00,26.0,21.0,30.42,WSW,253,2.0,-999.0,81,-99.99,,,-99.99,,2013-01-18 07:02:00,
2013-01-18 01:12:00,26.0,21.0,30.42,WSW,253,2.0,-999.0,81,-99.99,,,-99.99,,2013-01-18 07:12:00,
2013-01-18 01:22:00,26.0,21.0,30.43,WSW,253,2.0,-999.0,80,-99.99,,,-99.99,,2013-01-18 07:22:00,
2013-01-18 01:32:00,26.0,21.0,30.43,SSW,212,3.0,-999.0,80,-99.99,,,-99.99,,2013-01-18 07:32:00,
2013-01-18 01:42:00,26.0,21.0,30.43,SSW,212,3.0,-999.0,80,-99.99,,,-99.99,,2013-01-18 07:42:00,
2013-01-18 01:52:00,26.0,21.0,30.42,SSW,211,3.0,-999.0,81,-99.99,,,-99.99,,2013-01-18 07:52:00,
2013-01-18 02:02:00,26.0,21.0,30.42,SW,220,4.0,-999.0,80,-99.99,,,-99.99,,2013-01-18 08:02:00,
2013-01-18 02:12:00,26.0,21.0,30.42,SW,220,4.0,-999.0,80,-99.99,,,-99.99,,2013-01-18 08:12:00,
2013-01-18 02:22:00,26.0,20.0,30.42,SW,215,3.0,-999.0,79,-99.99,,,-99.99,,2013-01-18 08:22:00,
2013-01-18 02:32:00,26.0,20.0,30.43,SSW,210,3.0,-999.0,79,-99.99,,,-99.99,,2013-01-18 08:32:00,
2013-01-18 02:42:00,26.0,20.0,30.43,SSW,210,3.0,-999.0,79,-99.99,,,-99.99,,2013-01-18 08:42:00,
2013-01-18 02:53:00,26.0,20.0,30.42,SW,216,4.0,-999.0,78,-99.99,,,-99.99,,2013-01-18 08:53:00,
2013-01-18 03:02:00,26.0,20.0,30.42,SW,218,4.0,-999.0,78,-99.99,,,-99.99,,2013-01-18 09:02:00,
2013-01-18 03:12:00,26.0,20.0,30.42,SW,218,4.0,-999.0,78,-99.99,,,-99.99,,2013-01-18 09:12:00,
2013-01-18 03:22:00,26.0,20.0,30.42,SW,218,4.0,-999.0,77,-99.99,,,-99.99,,2013-01-18 09:22:00,
2013-01-18 03:32:00,26.0,20.0,30.42,SW,218,4.0,-999.0,78,-99.99,,,-99.99,,2013-01-18 09:32:00,
2013-01-18 03:42:00,26.0,20.0,30.42,SW,218,4.0,-999.0,78,-99.99,,,-99.99,,2013-01-18 09:42:00,
2013-01-18 03:52:00,26.0,20.0,30.41,SW,218,4.0,-999.0,78,-99.99,,,-99.99,,2013-01-18 09:52:00,
2013-01-18 04:02:00,26.0,20.0,30.41,SW,218,4.0,-999.0,78,-99.99,,,-99.99,,2013-01-18 10:02:00,
2013-01-18 04:12:00,26.0,20.0,30.41,SW,218,4.0,-999.0,78,-99.99,,,-99.99,,2013-01-18 10:12:00,
2013-01-18 04:22:00,26.0,20.0,30.41,SW,218,4.0,-999.0,78,-99.99,,,-99.99,,2013-01-18 10:22:00,
2013-01-18 04:32:00,26.0,20.0,30.40,SW,218,4.0,-999.0,77,-99.99,,,-99.99,,2013-01-18 10:32:00,
2013-01-18 04:42:00,26.0,20.0,30.40,SW,218,4.0,-999.0,77,-99.99,,,-99.99,,2013-01-18 10:42:00,
2013-01-18 04:52:00,26.0,20.0,30.40,SW,218,4.0,-999.0,77,-99.99,,,-99.99,,2013-01-18 10:52:00,
2013-01-18 05:02:00,26.0,20.0,30.40,SW,218,4.0,-999.0,77,-99.99,,,-99.99,,2013-01-18 11:02:00,
2013-01-18 05:12:00,26.0,20.0,30.40,SW,218,4.0,-999.0,77,-99.99,,,-99.99,,2013-01-18 11:12:00,
2013-01-18 05:22:00,26.0,20.0,30.40,SSW,212,5.0,-999.0,77,-99.99,,,-99.99,,2013-01-18 11:22:00,
2013-01-18 05:32:00,26.0,19.0,30.40,SSW,201,5.0,-999.0,76,-99.99,,,-99.99,,2013-01-18 11:32:00,
2013-01-18 05:42:00,26.0,19.0,30.40,SSW,201,5.0,-999.0,76,-99.99,,,-99.99,,2013-01-18 11:42:00,
2013-01-18 05:53:00,27.0,20.0,30.40,SSW,203,4.0,-999.0,75,-99.99,,,-99.99,,2013-01-18 11:53:00,
2013-01-18 06:02:00,27.0,20.0,30.39,SSW,203,4.0,-999.0,75,-99.99,,,-99.99,,2013-01-18 12:02:00,
2013-01-18 06:12:00,27.0,20.0,30.39,SSW,203,4.0,-999.0,75,-99.99,,,-99.99,,2013-01-18 12:12:00,
2013-01-18 06:22:00,27.0,20.0,30.39,SSW,206,5.0,-999.0,75,-99.99,,,-99.99,,2013-01-18 12:22:00,
2013-01-18 06:32:00,27.0,20.0,30.38,South,181,5.0,-999.0,76,-99.99,,,-99.99,,2013-01-18 12:32:00,
2013-01-18 06:42:00,27.0,20.0,30.38,South,181,5.0,-999.0,76,-99.99,,,-99.99,,2013-01-18 12:42:00,
2013-01-18 06:53:00,27.0,20.0,30.39,SSW,210,4.0,-999.0,76,-99.99,,,-99.99,,2013-01-18 12:53:00,
2013-01-18 07:03:00,27.0,20.0,30.39,SW,218,7.0,-999.0,75,-99.99,,,-99.99,,2013-01-18 13:03:00,
2013-01-18 07:12:00,27.0,20.0,30.39,SW,218,7.0,-999.0,75,-99.99,,,-99.99,,2013-01-18 13:12:00,
2013-01-18 07:23:00,27.0,20.0,30.38,SSW,195,7.0,-999.0,74,-99.99,,,-99.99,,2013-01-18 13:23:00,
2013-01-18 07:33:00,27.0,20.0,30.39,SW,225,6.0,-999.0,75,-99.99,,,-99.99,,2013-01-18 13:33:00,
2013-01-18 07:43:00,27.0,20.0,30.39,SW,225,6.0,-999.0,75,-99.99,,,-99.99,,2013-01-18 13:43:00,
2013-01-18 07:53:00,27.0,20.0,30.39,SW,225,6.0,-999.0,75,-99.99,,,-99.99,,2013-01-18 13:53:00,
2013-01-18 08:03:00,28.0,21.0,30.37,SSW,208,9.0,-999.0,74,-99.99,,,-99.99,,2013-01-18 14:03:00,
2013-01-18 08:12:00,28.0,21.0,30.37,SSW,208,9.0,-999.0,74,-99.99,,,-99.99,,2013-01-18 14:12:00,
2013-01-18 08:23:00,29.0,22.0,30.38,SW,215,7.0,-999.0,74,-99.99,,,-99.99,,2013-01-18 14:23:00,
2013-01-18 08:33:00,29.0,21.0,30.38,SW,230,10.0,-999.0,72,-99.99,,,-99.99,,2013-01-18 14:33:00,
2013-01-18 08:42:00,29.0,21.0,30.38,SW,230,10.0,-999.0,72,-99.99,,,-99.99,,2013-01-18 14:42:00,
2013-01-18 08:53:00,30.0,22.0,30.38,South,187,10.0,-999.0,72,-99.99,,,-99.99,,2013-01-18 14:53:00,
2013-01-18 09:03:00,30.0,22.0,30.38,SW,230,9.0,-999.0,71,-99.99,,,-99.99,,2013-01-18 15:03:00,
2013-01-18 09:12:00,30.0,22.0,30.38,SW,230,9.0,-999.0,71,-99.99,,,-99.99,,2013-01-18 15:12:00,
2013-01-18 09:23:00,31.0,22.0,30.38,SSW,199,9.0,-999.0,70,-99.99,,,-99.99,,2013-01-18 15:23:00,
2013-01-18 09:33:00,32.0,23.0,30.38,SSW,197,9.0,-999.0,70,-99.99,,,-99.99,,2013-01-18 15:33:00,
2013-01-18 09:43:00,32.0,23.0,30.38,SSW,197,9.0,-999.0,70,-99.99,,,-99.99,,2013-01-18 15:43:00,
2013-01-18 09:53:00,33.0,24.0,30.38,SW,225,10.0,-999.0,68,-99.99,,,-99.99,,2013-01-18 15:53:00,
2013-01-18 10:03:00,33.0,23.0,30.37,SW,218,12.0,-999.0,66,-99.99,,,-99.99,,2013-01-18 16:03:00,
2013-01-18 10:12:00,33.0,23.0,30.37,SW,218,12.0,-999.0,66,-99.99,,,-99.99,,2013-01-18 16:12:00,
2013-01-18 10:23:00,34.0,23.0,30.36,SW,215,8.0,-999.0,65,-99.99,,,-99.99,,2013-01-18 16:23:00,
2013-01-18 10:33:00,35.0,24.0,30.36,SSW,204,11.0,-999.0,63,-99.99,,,-99.99,,2013-01-18 16:33:00,
2013-01-18 10:42:00,35.0,24.0,30.36,SSW,204,11.0,-999.0,63,-99.99,,,-99.99,,2013-01-18 16:42:00,
2013-01-18 10:53:00,36.0,25.0,30.36,South,179,11.0,-999.0,63,-99.99,,,-99.99,,2013-01-18 16:53:00,
2013-01-18 11:03:00,36.0,24.0,30.35,SSW,197,12.0,-999.0,62,-99.99,,,-99.99,,2013-01-18 17:03:00,
2013-01-18 11:13:00,36.0,24.0,30.35,SSW,197,12.0,-999.0,62,-99.99,,,-99.99,,2013-01-18 17:13:00,
2013-01-18 11:23:00,37.0,24.0,30.34,SSE,156,10.0,-999.0,60,-99.99,,,-99.99,,2013-01-18 17:23:00,
2013-01-18 11:33:00,38.0,26.0,30.33,South,178,11.0,-999.0,61,-99.99,,,-99.99,,2013-01-18 17:33:00,
2013-01-18 11:42:00,38.0,26.0,30.33,South,178,11.0,-999.0,61,-99.99,,,-99.99,,2013-01-18 17:42:00,
2013-01-18 11:53:00,39.0,27.0,30.31,SSW,211,11.0,-999.0,61,-99.99,,,-99.99,,2013-01-18 17:53:00,
2013-01-18 12:03:00,39.0,25.0,30.30,South,179,12.0,-999.0,58,-99.99,,,-99.99,,2013-01-18 18:03:00,
2013-01-18 12:12:00,39.0,25.0,30.30,South,179,12.0,-999.0,58,-99.99,,,-99.99,,2013-01-18 18:12:00,
2013-01-18 12:23:00,39.0,25.0,30.28,SSW,192,12.0,-999.0,58,-99.99,,,-99.99,,2013-01-18 18:23:00,
2013-01-18 12:33:00,40.0,27.0,30.27,SSW,206,11.0,-999.0,59,-99.99,,,-99.99,,2013-01-18 18:33:00,
2013-01-18 12:43:00,40.0,27.0,30.27,SSW,206,11.0,-999.0,59,-99.99,,,-99.99,,2013-01-18 18:43:00,
2013-01-18 12:53:00,41.0,28.0,30.25,South,181,9.0,-999.0,60,-99.99,,,-99.99,,2013-01-18 18:53:00,
2013-01-18 13:03:00,42.0,30.0,30.24,SW,225,10.0,-999.0,61,-99.99,,,-99.99,,2013-01-18 19:03:00,
2013-01-18 13:12:00,42.0,30.0,30.24,SW,225,10.0,-999.0,61,-99.99,,,-99.99,,2013-01-18 19:12:00,
2013-01-18 13:22:00,42.0,30.0,30.22,SSW,212,8.0,-999.0,61,-99.99,,,-99.99,,2013-01-18 19:22:00,
2013-01-18 13:33:00,42.0,30.0,30.21,SSE,168,12.0,-999.0,62,-99.99,,,-99.99,,2013-01-18 19:33:00,
2013-01-18 13:42:00,42.0,30.0,30.21,SSE,168,12.0,-999.0,62,-99.99,,,-99.99,,2013-01-18 19:42:00,
2013-01-18 13:53:00,42.0,30.0,30.21,South,183,11.0,-999.0,63,-99.99,,,-99.99,,2013-01-18 19:53:00,
2013-01-18 14:03:00,42.0,30.0,30.21,South,183,11.0,-999.0,63,-99.99,,,-99.99,,2013-01-18 20:03:00,
2013-01-18 14:12:00,42.0,30.0,30.21,South,183,11.0,-999.0,63,-99.99,,,-99.99,,2013-01-18 20:12:00,
2013-01-18 14:23:00,43.0,32.0,30.19,South,182,10.0,-999.0,64,-99.99,,,-99.99,,2013-01-18 20:23:00,
2013-01-18 14:33:00,43.0,32.0,30.18,SSE,160,11.0,-999.0,65,-99.99,,,-99.99,,2013-01-18 20:33:00,
2013-01-18 14:43:00,43.0,32.0,30.18,SSE,160,11.0,-999.0,65,-99.99,,,-99.99,,2013-01-18 20:43:00,
2013-01-18 14:53:00,43.0,32.0,30.17,South,177,14.0,-999.0,65,-99.99,,,-99.99,,2013-01-18 20:53:00,
2013-01-18 15:03:00,43.0,32.0,30.16,SW,218,12.0,-999.0,66,-99.99,,,-99.99,,2013-01-18 21:03:00,
2013-01-18 15:12:00,43.0,32.0,30.16,SW,218,12.0,-999.0,66,-99.99,,,-99.99,,2013-01-18 21:12:00,
2013-01-18 15:23:00,43.0,32.0,30.15,South,178,12.0,-999.0,66,-99.99,,,-99.99,,2013-01-18 21:23:00,
2013-01-18 15:33:00,43.0,32.0,30.14,South,174,13.0,-999.0,65,-99.99,,,-99.99,,2013-01-18 21:33:00,
2013-01-18 15:42:00,43.0,32.0,30.14,South,174,13.0,-999.0,65,-99.99,,,-99.99,,2013-01-18 21:42:00,
2013-01-18 15:53:00,43.0,32.0,30.13,South,183,13.0,-999.0,65,-99.99,,,-99.99,,2013-01-18 21:53:00,
2013-01-18 16:03:00,43.0,32.0,30.12,South,170,13.0,-999.0,65,-99.99,,,-99.99,,2013-01-18 22:03:00,
2013-01-18 16:12:00,43.0,32.0,30.12,South,170,13.0,-999.0,65,-99.99,,,-99.99,,2013-01-18 22:12:00,
2013-01-18 16:22:00,43.0,32.0,30.11,South,174,12.0,-999.0,65,-99.99,,,-99.99,,2013-01-18 22:22:00,
2013-01-18 16:32:00,42.0,31.0,30.11,SSE,152,12.0,-999.0,65,-99.99,,,-99.99,,2013-01-18 22:32:00,
2013-01-18 16:42:00,42.0,31.0,30.11,SSE,152,12.0,-999.0,65,-99.99,,,-99.99,,2013-01-18 22:42:00,
2013-01-18 16:53:00,42.0,31.0,30.11,South,173,13.0,-999.0,65,-99.99,,,-99.99,,2013-01-18 22:53:00,
2013-01-18 17:02:00,42.0,31.0,30.09,SSE,167,14.0,-999.0,65,-99.99,,,-99.99,,2013-01-18 23:02:00,
2013-01-18 17:12:00,42.0,31.0,30.09,SSE,167,14.0,-999.0,65,-99.99,,,-99.99,,2013-01-18 23:12:00,
2013-01-18 17:22:00,41.0,30.0,30.09,SSE,154,15.0,-999.0,65,-99.99,,,-99.99,,2013-01-18 23:22:00,
2013-01-18 17:32:00,41.0,30.0,30.08,South,187,17.0,-999.0,64,-99.99,,,-99.99,,2013-01-18 23:32:00,
2013-01-18 17:42:00,41.0,30.0,30.08,South,187,17.0,-999.0,64,-99.99,,,-99.99,,2013-01-18 23:42:00,
2013-01-18 17:53:00,41.0,30.0,30.08,SSW,194,14.0,-999.0,65,-99.99,,,-99.99,,2013-01-18 23:53:00,
2013-01-18 18:02:00,41.0,30.0,30.07,SSW,196,16.0,-999.0,64,-99.99,,,-99.99,,2013-01-19 00:02:00,
2013-01-18 18:12:00,41.0,30.0,30.07,SSW,196,16.0,-999.0,64,-99.99,,,-99.99,,2013-01-19 00:12:00,
2013-01-18 18:22:00,41.0,30.0,30.06,SSE,162,16.0,-999.0,64,-99.99,,,-99.99,,2013-01-19 00:22:00,
2013-01-18 18:32:00,41.0,30.0,30.06,South,173,16.0,-999.0,64,-99.99,,,-99.99,,2013-01-19 00:32:00,
2013-01-18 18:42:00,41.0,30.0,30.06,South,173,16.0,-999.0,64,-99.99,,,-99.99,,2013-01-19 00:42:00,
2013-01-18 18:53:00,40.0,29.0,30.06,SSE,154,16.0,-999.0,65,-99.99,,,-99.99,,2013-01-19 00:53:00,
2013-01-18 19:02:00,40.0,30.0,30.05,SSE,164,17.0,-999.0,66,-99.99,,,-99.99,,2013-01-19 01:02:00,
2013-01-18 19:12:00,40.0,30.0,30.05,SSE,164,17.0,-999.0,66,-99.99,,,-99.99,,2013-01-19 01:12:00,
2013-01-18 19:22:00,40.0,30.0,30.05,South,181,17.0,-999.0,67,-99.99,,,-99.99,,2013-01-19 01:22:00,
2013-01-18 19:32:00,39.0,29.0,30.05,South,170,15.0,-999.0,68,-99.99,,,-99.99,,2013-01-19 01:32:00,
2013-01-18 19:42:00,39.0,29.0,30.05,South,170,15.0,-999.0,68,-99.99,,,-99.99,,2013-01-19 01:42:00,
2013-01-18 19:53:00,39.0,29.0,30.04,South,172,13.0,-999.0,67,-99.99,,,-99.99,,2013-01-19 01:53:00,
2013-01-18 20:02:00,39.0,29.0,30.03,SW,230,11.0,-999.0,67,-99.99,,,-99.99,,2013-01-19 02:02:00,
2013-01-18 20:12:00,39.0,29.0,30.03,SW,230,11.0,-999.0,67,-99.99,,,-99.99,,2013-01-19 02:12:00,
2013-01-18 20:22:00,40.0,30.0,30.03,SSW,199,11.0,-999.0,66,-99.99,,,-99.99,,2013-01-19 02:22:00,
2013-01-18 20:33:00,39.0,29.0,30.03,SSW,197,10.0,-999.0,66,-99.99,,,-99.99,,2013-01-19 02:33:00,
2013-01-18 20:42:00,39.0,29.0,30.03,SSW,197,10.0,-999.0,66,-99.99,,,-99.99,,2013-01-19 02:42:00,
2013-01-18 20:53:00,40.0,30.0,30.03,SSW,204,12.0,-999.0,66,-99.99,,,-99.99,,2013-01-19 02:53:00,
2013-01-18 21:02:00,40.0,29.0,30.03,WSW,245,14.0,-999.0,65,-99.99,,,-99.99,,2013-01-19 03:02:00,
2013-01-18 21:12:00,40.0,29.0,30.03,WSW,245,14.0,-999.0,65,-99.99,,,-99.99,,2013-01-19 03:12:00,
2013-01-18 21:22:00,39.0,29.0,30.03,SSW,209,11.0,-999.0,67,-99.99,,,-99.99,,2013-01-19 03:22:00,
2013-01-18 21:32:00,39.0,29.0,30.04,SSW,193,11.0,-999.0,67,-99.99,,,-99.99,,2013-01-19 03:32:00,
2013-01-18 21:43:00,39.0,29.0,30.04,SSW,193,11.0,-999.0,67,-99.99,,,-99.99,,2013-01-19 03:43:00,
2013-01-18 21:52:00,39.0,29.0,30.04,SSW,207,11.0,-999.0,68,-99.99,,,-99.99,,2013-01-19 03:52:00,
2013-01-18 22:02:00,38.0,28.0,30.04,SW,215,11.0,-999.0,68,-99.99,,,-99.99,,2013-01-19 04:02:00,
2013-01-18 22:12:00,38.0,28.0,30.04,SW,215,11.0,-999.0,68,-99.99,,,-99.99,,2013-01-19 04:12:00,
2013-01-18 22:22:00,38.0,29.0,30.04,SW,225,10.0,-999.0,70,-99.99,,,-99.99,,2013-01-19 04:22:00,
2013-01-18 22:32:00,38.0,29.0,30.04,SW,225,8.0,-999.0,70,-99.99,,,-99.99,,2013-01-19 04:32:00,
2013-01-18 22:42:00,38.0,29.0,30.04,SW,225,8.0,-999.0,70,-99.99,,,-99.99,,2013-01-19 04:42:00,
2013-01-18 22:53:00,38.0,29.0,30.04,SW,225,8.0,-999.0,70,-99.99,,,-99.99,,2013-01-19 04:53:00,
2013-01-18 23:03:00,38.0,29.0,30.04,South,187,9.0,-999.0,70,-99.99,,,-99.99,,2013-01-19 05:03:00,
2013-01-18 23:12:00,38.0,29.0,30.04,South,187,9.0,-999.0,70,-99.99,,,-99.99,,2013-01-19 05:12:00,
2013-01-18 23:22:00,38.0,29.0,30.03,SW,217,9.0,-999.0,70,-99.99,,,-99.99,,2013-01-19 05:22:00,
2013-01-18 23:32:00,38.0,29.0,30.03,SSW,211,10.0,-999.0,70,-99.99,,,-99.99,,2013-01-19 05:32:00,
2013-01-18 23:42:00,38.0,29.0,30.03,SSW,211,10.0,-999.0,70,-99.99,,,-99.99,,2013-01-19 05:42:00,
2013-01-18 23:53:00,38.0,29.0,30.03,SSW,197,11.0,-999.0,70,-99.99,,,-99.99,,2013-01-19 05:53:00,